sat.trackr.live / text

‹ back to catalog

STARLINK-3758

NORAD 52297 · 2022-041AN

PAYLOAD ACTIVE UNKNOWN

§ Identity

Operator
Country
US
Launch date
2022-04-21
Launch site
AFETR
Launch vehicle
Mass (kg)
RCS (m²)

Purposes: comms

External: N2YO · Heavens-Above · Gunter

§ Orbital elements

Epoch: 2026-09-19T16:58:41.671200Z

Period
93.90 min
Inclination
53.1594°
Eccentricity
0.0001568
Mean motion
15.33564275 rev/d
Perigee alt
464.1 km
Apogee alt
466.3 km
Semi-major
6,843.3 km
B*
-1.1004e-4
RAAN
295.6007°
Arg perigee
135.5181°
Mean anomaly
224.5948°
Rev number
24,396

§ Raw data

STARLINK-37581 52297U 22041AN  26262.70742675 -.00003992  00000+0 -11004-3 0  99932 52297  53.1594 295.6007 0001568 135.5181 224.5948 15.33564275243966

JSON: /api/v1/satellites/52297 · /tle

For live sub-satellite position, see the globe view (requires WebGL).

§ Visibility from observer

Set your observer location to see the next 7 days of passes ≥ 10°. The values pass through the URL so the page stays shareable.

No JS? Fill the form by hand. The geolocation button needs JavaScript.